Station Historical Data
Daily Summary for March 12, 2017 Units:  English    Metric   Both
Next Day »
Daily Weekly Monthly Yearly Custom
  High: Low: Average:
Temperature: 69.5 °F 47.6 °F 57.4 °F
Dew Point: 48.7 °F 37.6 °F 43.4 °F
Humidity: 78% 34% 61%
Wind Speed: 9.0mph 0.0mph 1.1mph
Wind Gust: 11.0mph - -
Wind- - SSW
Pressure: 30.23 in 30.14 in -
Precipitation: 0.00 in    
Historical Graphs
 
 
Tabular Data for March 12, 2017
Time Temperature Dew Point Pressure Wind Wind Speed Wind Gust Humidity Rainfall Rate (Hourly) solar Conditions
00:04 50.5 °F 43.9 °F 30.22 in Calm     78% 0.00 in 0.00 W/m2
00:09 50.4 °F 43.8 °F 30.22 in Calm     78% 0.00 in 0.00 W/m2
00:14 50.3 °F 43.4 °F 30.22 in Calm     77% 0.00 in 0.00 W/m2
00:19 50.3 °F 43.7 °F 30.22 in Calm     78% 0.00 in 0.00 W/m2
00:24 50.2 °F 43.3 °F 30.22 in Calm     77% 0.00 in 0.00 W/m2
00:29 50.2 °F 43.3 °F 30.22 in Calm     77% 0.00 in 0.00 W/m2
00:34 50.1 °F 43.2 °F 30.23 in Calm     77% 0.00 in 0.00 W/m2
00:39 50.0 °F 42.7 °F 30.23 in Calm     76% 0.00 in 0.00 W/m2
00:44 49.9 °F 43.0 °F 30.23 in Calm     77% 0.00 in 0.00 W/m2
00:49 49.9 °F 42.7 °F 30.23 in Calm     76% 0.00 in 0.00 W/m2
00:54 49.8 °F 42.9 °F 30.23 in Calm     77% 0.00 in 0.00 W/m2
00:55 49.8 °F 42.9 °F 30.22 in Calm     77% 0.00 in 0.00 W/m2
01:00 49.7 °F 43.1 °F 30.22 in Calm     78% 0.00 in 0.00 W/m2
01:05 49.7 °F 43.1 °F 30.22 in Calm     78% 0.00 in 0.00 W/m2
01:10 49.6 °F 43.0 °F 30.22 in Calm     78% 0.00 in 0.00 W/m2
01:15 49.6 °F 43.0 °F 30.22 in Calm     78% 0.00 in 0.00 W/m2
01:20 49.6 °F 43.0 °F 30.22 in Calm     78% 0.00 in 0.00 W/m2
01:25 49.6 °F 43.0 °F 30.22 in Calm     78% 0.00 in 0.00 W/m2
01:30 49.5 °F 42.9 °F 30.22 in Calm     78% 0.00 in 0.00 W/m2
01:35 49.5 °F 42.9 °F 30.22 in Calm   4.0 mph 78% 0.00 in 0.00 W/m2
01:40 49.4 °F 42.5 °F 30.22 in Calm   1.0 mph 77% 0.00 in 0.00 W/m2
01:45 49.4 °F 42.5 °F 30.22 in East 1.0 mph 1.0 mph 77% 0.00 in 0.00 W/m2
01:50 49.3 °F 42.4 °F 30.22 in East 1.0 mph 1.0 mph 77% 0.00 in 0.00 W/m2
01:55 49.3 °F 42.4 °F 30.21 in East 1.0 mph 1.0 mph 77% 0.00 in 0.00 W/m2
03:00 49.3 °F 42.7 °F 30.21 in Calm   1.0 mph 78% 0.00 in 0.00 W/m2
03:05 49.2 °F 42.6 °F 30.21 in Calm   1.0 mph 78% 0.00 in 0.00 W/m2
03:10 49.2 °F 42.3 °F 30.21 in Calm   2.0 mph 77% 0.00 in 0.00 W/m2
03:15 49.2 °F 42.3 °F 30.21 in Calm   1.0 mph 77% 0.00 in 0.00 W/m2
03:20 49.2 °F 42.3 °F 30.20 in Calm   1.0 mph 77% 0.00 in 0.00 W/m2
03:25 49.2 °F 42.6 °F 30.20 in Calm   1.0 mph 78% 0.00 in 0.00 W/m2
03:30 49.1 °F 42.2 °F 30.20 in Calm   1.0 mph 77% 0.00 in 0.00 W/m2
03:35 49.1 °F 42.5 °F 30.20 in Calm   1.0 mph 78% 0.00 in 0.00 W/m2
03:40 49.1 °F 42.5 °F 30.20 in Calm   1.0 mph 78% 0.00 in 0.00 W/m2
03:45 49.1 °F 42.2 °F 30.19 in Calm   1.0 mph 77% 0.00 in 0.00 W/m2
03:50 49.0 °F 42.1 °F 30.19 in ESE 1.0 mph 1.0 mph 77% 0.00 in 0.00 W/m2
03:55 49.0 °F 42.1 °F 30.19 in Calm   2.0 mph 77% 0.00 in 0.00 W/m2
04:00 48.9 °F 42.0 °F 30.19 in Calm   1.0 mph 77% 0.00 in 0.00 W/m2
04:05 48.9 °F 42.0 °F 30.19 in ESE 1.0 mph 4.0 mph 77% 0.00 in 0.00 W/m2
04:10 48.8 °F 41.9 °F 30.19 in Calm   2.0 mph 77% 0.00 in 0.00 W/m2
04:12 48.8 °F 41.9 °F 30.19 in Calm   1.0 mph 77% 0.00 in 0.00 W/m2
04:17 48.8 °F 41.9 °F 30.19 in Calm   2.0 mph 77% 0.00 in 0.00 W/m2
04:22 48.8 °F 41.6 °F 30.19 in East 1.0 mph 2.0 mph 76% 0.00 in 0.00 W/m2
04:27 48.7 °F 41.5 °F 30.19 in Calm   1.0 mph 76% 0.00 in 0.00 W/m2
04:32 48.7 °F 41.5 °F 30.19 in East 1.0 mph 1.0 mph 76% 0.00 in 0.00 W/m2
04:37 48.7 °F 41.5 °F 30.19 in Calm   2.0 mph 76% 0.00 in 0.00 W/m2
04:42 48.7 °F 41.5 °F 30.19 in East 1.0 mph 1.0 mph 76% 0.00 in 0.00 W/m2
04:47 48.7 °F 41.1 °F 30.18 in East 1.0 mph 2.0 mph 75% 0.00 in 0.00 W/m2
04:52 48.7 °F 41.5 °F 30.19 in Calm   4.0 mph 76% 0.00 in 0.00 W/m2
04:57 48.6 °F 40.7 °F 30.19 in ESE 2.0 mph 5.0 mph 74% 0.00 in 0.00 W/m2
05:02 48.7 °F 40.8 °F 30.19 in Calm   2.0 mph 74% 0.00 in 0.00 W/m2
05:07 48.7 °F 40.8 °F 30.19 in East 1.0 mph 2.0 mph 74% 0.00 in 0.00 W/m2
05:12 48.7 °F 40.8 °F 30.19 in East 1.0 mph 2.0 mph 74% 0.00 in 0.00 W/m2
05:17 48.7 °F 40.8 °F 30.19 in East 1.0 mph 4.0 mph 74% 0.00 in 0.00 W/m2
05:22 48.7 °F 40.8 °F 30.19 in Calm   4.0 mph 74% 0.00 in 0.00 W/m2
05:27 48.8 °F 40.5 °F 30.18 in East 2.0 mph 2.0 mph 73% 0.00 in 0.00 W/m2
05:32 48.8 °F 40.2 °F 30.18 in East 2.0 mph 2.0 mph 72% 0.00 in 0.00 W/m2
05:37 48.8 °F 40.2 °F 30.18 in ESE 4.0 mph 6.0 mph 72% 0.00 in 0.00 W/m2
05:43 48.8 °F 39.8 °F 30.18 in ESE 1.0 mph 4.0 mph 71% 0.00 in 0.00 W/m2
05:48 48.8 °F 39.8 °F 30.18 in ESE 2.0 mph 6.0 mph 71% 0.00 in 0.00 W/m2
05:53 48.8 °F 40.2 °F 30.18 in Calm   7.0 mph 72% 0.00 in 0.00 W/m2
05:58 48.7 °F 39.7 °F 30.18 in East 2.0 mph 5.0 mph 71% 0.00 in 0.00 W/m2
06:03 48.7 °F 39.4 °F 30.18 in East 1.0 mph 7.0 mph 70% 0.00 in 0.00 W/m2
06:08 48.7 °F 39.7 °F 30.18 in Calm   6.0 mph 71% 0.00 in 0.00 W/m2
06:13 48.7 °F 39.4 °F 30.18 in ESE 2.0 mph 6.0 mph 70% 0.00 in 0.00 W/m2
06:18 48.7 °F 39.0 °F 30.18 in Calm   5.0 mph 69% 0.00 in 0.00 W/m2
06:23 48.7 °F 39.0 °F 30.18 in East 2.0 mph 7.0 mph 69% 0.00 in 0.00 W/m2
06:28 48.7 °F 39.4 °F 30.18 in East 4.0 mph 6.0 mph 70% 0.00 in 0.00 W/m2
06:33 48.7 °F 39.0 °F 30.18 in East 5.0 mph 5.0 mph 69% 0.00 in 0.00 W/m2
06:38 48.8 °F 39.1 °F 30.18 in East 1.0 mph 2.0 mph 69% 0.00 in 0.00 W/m2
06:43 48.8 °F 38.7 °F 30.18 in Calm   2.0 mph 68% 0.00 in 0.00 W/m2
06:48 48.8 °F 39.1 °F 30.18 in East 2.0 mph 2.0 mph 69% 0.00 in 0.00 W/m2
06:53 48.8 °F 39.1 °F 30.18 in Calm   2.0 mph 69% 0.00 in 0.00 W/m2
06:58 48.7 °F 39.0 °F 30.18 in Calm   2.0 mph 69% 0.00 in 0.00 W/m2
07:03 48.6 °F 39.3 °F 30.18 in Calm   2.0 mph 70% 0.00 in 0.00 W/m2
07:08 48.5 °F 39.2 °F 30.18 in Calm   2.0 mph 70% 0.00 in 0.00 W/m2
07:13 48.4 °F 39.1 °F 30.18 in East 1.0 mph 4.0 mph 70% 0.00 in 0.00 W/m2
07:18 48.3 °F 39.0 °F 30.18 in Calm   2.0 mph 70% 0.00 in 0.00 W/m2
07:23 48.2 °F 38.9 °F 30.18 in Calm   2.0 mph 70% 0.00 in 5.00 W/m2
07:28 48.1 °F 38.8 °F 30.18 in East 1.0 mph 2.0 mph 70% 0.00 in 7.00 W/m2
07:33 48.0 °F 38.7 °F 30.18 in East 1.0 mph 4.0 mph 70% 0.00 in 11.00 W/m2
07:38 47.9 °F 38.6 °F 30.18 in East 1.0 mph 4.0 mph 70% 0.00 in 16.00 W/m2
07:43 47.8 °F 38.5 °F 30.18 in Calm   2.0 mph 70% 0.00 in 21.00 W/m2
07:48 47.7 °F 38.0 °F 30.18 in Calm   4.0 mph 69% 0.00 in 30.00 W/m2
07:53 47.7 °F 38.4 °F 30.18 in Calm   5.0 mph 70% 0.00 in 49.00 W/m2
08:04 47.6 °F 38.7 °F 30.18 in ESE 1.0 mph 7.0 mph 71% 0.00 in 81.00 W/m2
10:33 56.4 °F 42.3 °F 30.20 in Calm   2.0 mph 59% 0.00 in 610.00 W/m2
10:38 57.3 °F 41.3 °F 30.20 in ENE 2.0 mph 3.0 mph 55% 0.00 in 626.00 W/m2
10:43 58.0 °F 41.9 °F 30.20 in WNW 3.0 mph 6.0 mph 55% 0.00 in 640.00 W/m2
10:45 58.2 °F 41.7 °F 30.20 in WNW 1.0 mph 6.0 mph 54% 0.00 in 649.00 W/m2
10:49 58.7 °F 41.1 °F 30.20 in WNW 1.0 mph 3.0 mph 52% 0.00 in 656.00 W/m2
10:54 59.4 °F 41.3 °F 30.20 in NW 4.0 mph 7.0 mph 51% 0.00 in 670.00 W/m2
10:59 60.0 °F 41.3 °F 30.20 in NNW 1.0 mph 6.0 mph 50% 0.00 in 666.00 W/m2
11:09 61.0 °F 42.8 °F 30.21 in Calm   5.0 mph 51% 0.00 in 694.00 W/m2
11:14 61.3 °F 42.5 °F 30.21 in NNW 4.0 mph 6.0 mph 50% 0.00 in 710.00 W/m2
11:19 61.7 °F 39.0 °F 30.20 in North 1.0 mph 9.0 mph 43% 0.00 in 708.00 W/m2
11:24 62.0 °F 39.3 °F 30.21 in NNW 5.0 mph 7.0 mph 43% 0.00 in 717.00 W/m2
11:29 62.3 °F 42.4 °F 30.21 in NNW 4.0 mph 5.0 mph 48% 0.00 in 729.00 W/m2
11:34 62.6 °F 41.0 °F 30.21 in NNW 1.0 mph 6.0 mph 45% 0.00 in 744.00 W/m2
11:39 62.9 °F 42.4 °F 30.21 in NW 4.0 mph 7.0 mph 47% 0.00 in 751.00 W/m2
11:44 63.1 °F 40.9 °F 30.20 in NNW 6.0 mph 6.0 mph 44% 0.00 in 759.00 W/m2
11:49 63.4 °F 40.5 °F 30.20 in Calm   7.0 mph 43% 0.00 in 766.00 W/m2
11:54 63.6 °F 42.5 °F 30.20 in NW 4.0 mph 9.0 mph 46% 0.00 in 777.00 W/m2
11:59 63.7 °F 40.8 °F 30.20 in North 2.0 mph 11.0 mph 43% 0.00 in 786.00 W/m2
12:04 64.0 °F 38.6 °F 30.20 in North 3.0 mph 9.0 mph 39% 0.00 in 793.00 W/m2
12:09 64.4 °F 40.2 °F 30.20 in Calm   9.0 mph 41% 0.00 in 796.00 W/m2
12:14 64.8 °F 38.6 °F 30.20 in Calm   7.0 mph 38% 0.00 in 800.00 W/m2
12:19 65.2 °F 37.6 °F 30.20 in Calm   9.0 mph 36% 0.00 in 802.00 W/m2
12:24 65.5 °F 37.9 °F 30.20 in NNW 7.0 mph 9.0 mph 36% 0.00 in 802.00 W/m2
12:29 65.6 °F 38.7 °F 30.20 in North 1.0 mph 5.0 mph 37% 0.00 in 788.00 W/m2
12:34 65.7 °F 39.4 °F 30.20 in NW 2.0 mph 3.0 mph 38% 0.00 in 798.00 W/m2
12:39 65.7 °F 38.0 °F 30.20 in NNW 6.0 mph 8.0 mph 36% 0.00 in 807.00 W/m2
12:44 65.9 °F 38.9 °F 30.20 in NNW 2.0 mph 5.0 mph 37% 0.00 in 819.00 W/m2
12:49 66.0 °F 39.7 °F 30.19 in Calm   4.0 mph 38% 0.00 in 819.00 W/m2
12:54 66.1 °F 40.5 °F 30.20 in Calm   4.0 mph 39% 0.00 in 819.00 W/m2
12:59 66.1 °F 41.1 °F 30.19 in Calm   4.0 mph 40% 0.00 in 810.00 W/m2
13:04 66.3 °F 40.0 °F 30.19 in West 2.0 mph 7.0 mph 38% 0.00 in 814.00 W/m2
13:09 66.5 °F 40.8 °F 30.19 in Calm   2.0 mph 39% 0.00 in 830.00 W/m2
13:14 66.6 °F 38.8 °F 30.19 in West 2.0 mph 4.0 mph 36% 0.00 in 824.00 W/m2
13:19 66.8 °F 39.7 °F 30.19 in Calm   2.0 mph 37% 0.00 in 830.00 W/m2
13:24 67.1 °F 39.3 °F 30.19 in NNW 3.0 mph 5.0 mph 36% 0.00 in 828.00 W/m2
13:29 67.3 °F 39.5 °F 30.19 in WSW 1.0 mph 6.0 mph 36% 0.00 in 817.00 W/m2
13:34 67.5 °F 38.2 °F 30.18 in West 3.0 mph 4.0 mph 34% 0.00 in 819.00 W/m2
13:39 67.8 °F 39.9 °F 30.18 in Calm   5.0 mph 36% 0.00 in 816.00 W/m2
13:44 68.0 °F 39.3 °F 30.18 in WSW 3.0 mph 3.0 mph 35% 0.00 in 796.00 W/m2
13:49 68.2 °F 40.2 °F 30.18 in Calm   2.0 mph 36% 0.00 in 779.00 W/m2
13:54 68.4 °F 39.0 °F 30.18 in WNW 2.0 mph 4.0 mph 34% 0.00 in 784.00 W/m2
14:00 68.6 °F 40.6 °F 30.18 in Calm   5.0 mph 36% 0.00 in 784.00 W/m2
14:05 68.7 °F 40.0 °F 30.17 in NW 2.0 mph 6.0 mph 35% 0.00 in 788.00 W/m2
14:10 68.8 °F 40.8 °F 30.17 in Calm   4.0 mph 36% 0.00 in 788.00 W/m2
14:15 68.8 °F 42.2 °F 30.17 in Calm   3.0 mph 38% 0.00 in 782.00 W/m2
14:20 68.9 °F 44.2 °F 30.17 in WNW 5.0 mph 7.0 mph 41% 0.00 in 773.00 W/m2
14:25 69.1 °F 43.8 °F 30.17 in WNW 1.0 mph 5.0 mph 40% 0.00 in 768.00 W/m2
14:30 69.2 °F 46.4 °F 30.16 in WSW 5.0 mph 9.0 mph 44% 0.00 in 759.00 W/m2
14:35 69.3 °F 45.9 °F 30.16 in West 4.0 mph 5.0 mph 43% 0.00 in 752.00 W/m2
14:40 69.4 °F 46.6 °F 30.16 in NNW 2.0 mph 8.0 mph 44% 0.00 in 749.00 W/m2
14:45 69.5 °F 46.7 °F 30.16 in WNW 1.0 mph 7.0 mph 44% 0.00 in 738.00 W/m2
14:50 69.5 °F 47.2 °F 30.16 in Calm   2.0 mph 45% 0.00 in 728.00 W/m2
14:55 69.5 °F 47.2 °F 30.16 in Calm   5.0 mph 45% 0.00 in 721.00 W/m2
15:00 69.5 °F 47.8 °F 30.16 in WSW 2.0 mph 8.0 mph 46% 0.00 in 710.00 W/m2
15:05 69.4 °F 47.2 °F 30.16 in Calm   9.0 mph 45% 0.00 in 701.00 W/m2
15:10 69.4 °F 47.2 °F 30.16 in WNW 1.0 mph 7.0 mph 45% 0.00 in 689.00 W/m2
15:15 69.4 °F 47.2 °F 30.16 in Calm   9.0 mph 45% 0.00 in 680.00 W/m2
15:20 69.2 °F 47.6 °F 30.16 in WSW 9.0 mph 9.0 mph 46% 0.00 in 670.00 W/m2
15:25 69.1 °F 48.0 °F 30.15 in West 8.0 mph 8.0 mph 47% 0.00 in 661.00 W/m2
15:30 69.1 °F 48.0 °F 30.15 in WSW 1.0 mph 8.0 mph 47% 0.00 in 647.00 W/m2
15:35 69.0 °F 47.4 °F 30.15 in WSW 2.0 mph 10.0 mph 46% 0.00 in 636.00 W/m2
15:40 68.8 °F 47.8 °F 30.15 in West 3.0 mph 9.0 mph 47% 0.00 in 621.00 W/m2
15:45 68.6 °F 47.6 °F 30.15 in Calm   3.0 mph 47% 0.00 in 612.00 W/m2
15:48 68.6 °F 47.6 °F 30.15 in Calm   5.0 mph 47% 0.00 in 601.00 W/m2
15:50 68.5 °F 46.9 °F 30.15 in WNW 6.0 mph 6.0 mph 46% 0.00 in 598.00 W/m2
15:55 68.4 °F 48.5 °F 30.15 in WNW 7.0 mph 7.0 mph 49% 0.00 in 584.00 W/m2
15:59 68.3 °F 47.9 °F 30.15 in NW 4.0 mph 4.0 mph 48% 0.00 in 575.00 W/m2
16:00 68.3 °F 47.9 °F 30.15 in WNW 1.0 mph 4.0 mph 48% 0.00 in 571.00 W/m2
16:05 68.1 °F 47.1 °F 30.15 in Calm   8.0 mph 47% 0.00 in 559.00 W/m2
16:10 68.0 °F 47.0 °F 30.15 in Calm   3.0 mph 47% 0.00 in 545.00 W/m2
16:15 67.9 °F 47.0 °F 30.15 in NW 4.0 mph 6.0 mph 47% 0.00 in 531.00 W/m2
16:20 67.8 °F 47.4 °F 30.15 in WNW 1.0 mph 7.0 mph 48% 0.00 in 517.00 W/m2
16:25 67.7 °F 47.9 °F 30.15 in Calm   3.0 mph 49% 0.00 in 497.00 W/m2
16:30 67.6 °F 47.2 °F 30.15 in Calm   4.0 mph 48% 0.00 in 485.00 W/m2
16:35 67.6 °F 46.7 °F 30.15 in Calm   4.0 mph 47% 0.00 in 471.00 W/m2
16:40 67.6 °F 47.8 °F 30.15 in Calm   4.0 mph 49% 0.00 in 457.00 W/m2
16:45 67.5 °F 47.1 °F 30.15 in Calm   5.0 mph 48% 0.00 in 441.00 W/m2
16:50 67.5 °F 47.7 °F 30.15 in Calm   5.0 mph 49% 0.00 in 425.00 W/m2
16:55 67.5 °F 48.2 °F 30.15 in Calm   3.0 mph 50% 0.00 in 410.00 W/m2
17:00 67.4 °F 47.6 °F 30.15 in Calm     49% 0.00 in 390.00 W/m2
17:05 67.4 °F 47.0 °F 30.14 in SW 3.0 mph 3.0 mph 48% 0.00 in 376.00 W/m2
17:10 67.3 °F 47.0 °F 30.14 in West 5.0 mph 6.0 mph 48% 0.00 in 357.00 W/m2
17:15 67.2 °F 47.4 °F 30.15 in NW 1.0 mph 5.0 mph 49% 0.00 in 343.00 W/m2
17:20 67.1 °F 46.8 °F 30.15 in WNW 1.0 mph 2.0 mph 48% 0.00 in 325.00 W/m2
17:25 67.0 °F 47.2 °F 30.15 in NW 2.0 mph 4.0 mph 49% 0.00 in 309.00 W/m2
17:30 66.7 °F 46.4 °F 30.15 in West 5.0 mph 5.0 mph 48% 0.00 in 290.00 W/m2
17:35 66.5 °F 45.7 °F 30.15 in Calm   3.0 mph 47% 0.00 in 271.00 W/m2
17:40 66.3 °F 46.6 °F 30.15 in Calm   3.0 mph 49% 0.00 in 253.00 W/m2
17:45 66.1 °F 46.4 °F 30.15 in Calm   4.0 mph 49% 0.00 in 236.00 W/m2
17:50 66.0 °F 46.3 °F 30.15 in Calm   3.0 mph 49% 0.00 in 213.00 W/m2
17:55 65.9 °F 47.3 °F 30.15 in Calm   1.0 mph 51% 0.00 in 195.00 W/m2
18:00 65.7 °F 47.1 °F 30.15 in Calm   2.0 mph 51% 0.00 in 172.00 W/m2
18:05 65.5 °F 46.4 °F 30.15 in Calm   3.0 mph 50% 0.00 in 151.00 W/m2
18:10 65.3 °F 46.7 °F 30.15 in West 1.0 mph 2.0 mph 51% 0.00 in 128.00 W/m2
18:15 65.0 °F 47.0 °F 30.15 in Calm   3.0 mph 52% 0.00 in 109.00 W/m2
18:20 64.8 °F 48.3 °F 30.15 in Calm     55% 0.00 in 90.00 W/m2
18:25 64.4 °F 47.9 °F 30.15 in Calm   3.0 mph 55% 0.00 in 70.00 W/m2
18:31 64.1 °F 48.6 °F 30.15 in Calm   3.0 mph 57% 0.00 in 54.00 W/m2
18:36 63.7 °F 48.2 °F 30.15 in Calm     57% 0.00 in 40.00 W/m2
18:41 63.2 °F 48.7 °F 30.15 in Calm     59% 0.00 in 32.00 W/m2
18:46 62.7 °F 48.2 °F 30.15 in Calm     59% 0.00 in 21.00 W/m2
18:51 62.3 °F 48.2 °F 30.15 in Calm     60% 0.00 in 16.00 W/m2
18:56 61.7 °F 47.7 °F 30.15 in Calm     60% 0.00 in 12.00 W/m2
19:01 61.0 °F 47.5 °F 30.15 in Calm     61% 0.00 in 11.00 W/m2
19:06 60.3 °F 46.8 °F 30.15 in Calm     61% 0.00 in 7.00 W/m2
19:11 59.8 °F 47.2 °F 30.15 in Calm     63% 0.00 in 5.00 W/m2
19:16 59.4 °F 46.8 °F 30.15 in Calm     63% 0.00 in 0.00 W/m2
19:21 59.2 °F 46.6 °F 30.16 in Calm     63% 0.00 in 0.00 W/m2
19:26 59.0 °F 46.4 °F 30.16 in Calm     63% 0.00 in 0.00 W/m2
19:31 58.6 °F 46.9 °F 30.16 in Calm     65% 0.00 in 0.00 W/m2
19:36 57.9 °F 45.8 °F 30.16 in Calm     64% 0.00 in 0.00 W/m2
19:41 57.3 °F 45.7 °F 30.16 in Calm     65% 0.00 in 0.00 W/m2
19:46 56.9 °F 44.9 °F 30.16 in Calm     64% 0.00 in 0.00 W/m2
19:51 56.5 °F 45.3 °F 30.16 in Calm     66% 0.00 in 0.00 W/m2
19:56 56.2 °F 44.2 °F 30.16 in Calm     64% 0.00 in 0.00 W/m2
20:01 56.0 °F 44.4 °F 30.17 in Calm     65% 0.00 in 0.00 W/m2
20:06 55.9 °F 44.7 °F 30.17 in Calm     66% 0.00 in 0.00 W/m2
20:11 55.6 °F 44.4 °F 30.17 in Calm     66% 0.00 in 0.00 W/m2
20:16 55.3 °F 44.2 °F 30.17 in Calm     66% 0.00 in 0.00 W/m2
20:21 55.1 °F 44.0 °F 30.17 in Calm     66% 0.00 in 0.00 W/m2
20:26 54.9 °F 43.8 °F 30.17 in Calm     66% 0.00 in 0.00 W/m2
20:31 54.6 °F 43.1 °F 30.17 in Calm     65% 0.00 in 0.00 W/m2
20:36 54.5 °F 43.4 °F 30.17 in Calm     66% 0.00 in 0.00 W/m2
20:41 54.3 °F 43.6 °F 30.17 in Calm     67% 0.00 in 0.00 W/m2
20:46 54.1 °F 43.4 °F 30.17 in Calm     67% 0.00 in 0.00 W/m2
20:51 53.9 °F 43.2 °F 30.18 in Calm     67% 0.00 in 0.00 W/m2
20:56 53.7 °F 42.6 °F 30.18 in Calm     66% 0.00 in 0.00 W/m2
21:01 53.6 °F 42.9 °F 30.18 in Calm     67% 0.00 in 0.00 W/m2
21:06 53.4 °F 43.1 °F 30.18 in Calm     68% 0.00 in 0.00 W/m2
21:11 53.2 °F 42.5 °F 30.18 in Calm     67% 0.00 in 0.00 W/m2
21:16 53.2 °F 43.3 °F 30.18 in Calm     69% 0.00 in 0.00 W/m2
21:21 53.2 °F 42.9 °F 30.18 in Calm     68% 0.00 in 0.00 W/m2
21:26 53.1 °F 42.8 °F 30.18 in Calm     68% 0.00 in 0.00 W/m2
21:31 53.1 °F 43.2 °F 30.18 in Calm     69% 0.00 in 0.00 W/m2
21:36 53.1 °F 43.2 °F 30.18 in Calm     69% 0.00 in 0.00 W/m2
21:41 53.1 °F 43.6 °F 30.18 in SE 1.0 mph 4.0 mph 70% 0.00 in 0.00 W/m2
21:46 53.2 °F 44.0 °F 30.18 in ESE 2.0 mph 2.0 mph 71% 0.00 in 0.00 W/m2
21:51 53.2 °F 44.8 °F 30.18 in ESE 2.0 mph 5.0 mph 73% 0.00 in 0.00 W/m2
21:56 53.3 °F 45.2 °F 30.18 in ESE 1.0 mph 5.0 mph 74% 0.00 in 0.00 W/m2
22:01 53.4 °F 45.7 °F 30.18 in East 1.0 mph 4.0 mph 75% 0.00 in 0.00 W/m2
22:06 53.5 °F 45.8 °F 30.17 in Calm     75% 0.00 in 0.00 W/m2
22:11 53.5 °F 45.8 °F 30.17 in Calm     75% 0.00 in 0.00 W/m2
22:16 53.5 °F 46.1 °F 30.17 in Calm   2.0 mph 76% 0.00 in 0.00 W/m2
22:21 53.6 °F 46.2 °F 30.17 in East 2.0 mph 6.0 mph 76% 0.00 in 0.00 W/m2
22:26 53.6 °F 46.2 °F 30.18 in Calm   2.0 mph 76% 0.00 in 0.00 W/m2
22:31 53.7 °F 46.3 °F 30.18 in ESE 4.0 mph 4.0 mph 76% 0.00 in 0.00 W/m2
22:36 53.7 °F 46.3 °F 30.18 in ESE 7.0 mph 7.0 mph 76% 0.00 in 0.00 W/m2
22:41 53.7 °F 46.3 °F 30.18 in East 4.0 mph 5.0 mph 76% 0.00 in 0.00 W/m2
22:47 53.7 °F 46.0 °F 30.18 in Calm   5.0 mph 75% 0.00 in 0.00 W/m2
22:52 53.7 °F 46.3 °F 30.18 in Calm     76% 0.00 in 0.00 W/m2
22:57 53.6 °F 46.2 °F 30.18 in Calm     76% 0.00 in 0.00 W/m2
23:02 53.5 °F 45.8 °F 30.18 in East 4.0 mph 4.0 mph 75% 0.00 in 0.00 W/m2
23:07 53.4 °F 46.0 °F 30.18 in Calm   4.0 mph 76% 0.00 in 0.00 W/m2
23:12 53.3 °F 45.9 °F 30.18 in Calm   4.0 mph 76% 0.00 in 0.00 W/m2
23:17 53.3 °F 45.9 °F 30.18 in East 1.0 mph 6.0 mph 76% 0.00 in 0.00 W/m2
23:22 53.2 °F 45.8 °F 30.18 in Calm   2.0 mph 76% 0.00 in 0.00 W/m2
23:27 53.2 °F 45.5 °F 30.18 in East 6.0 mph 7.0 mph 75% 0.00 in 0.00 W/m2
23:32 53.1 °F 45.8 °F 30.18 in Calm   4.0 mph 76% 0.00 in 0.00 W/m2
23:37 53.1 °F 45.4 °F 30.18 in Calm   4.0 mph 75% 0.00 in 0.00 W/m2
23:42 53.0 °F 45.3 °F 30.18 in ESE 4.0 mph 6.0 mph 75% 0.00 in 0.00 W/m2
23:47 53.0 °F 45.3 °F 30.18 in ESE 5.0 mph 6.0 mph 75% 0.00 in 0.00 W/m2
23:52 52.9 °F 44.8 °F 30.18 in ESE 2.0 mph 2.0 mph 74% 0.00 in 0.00 W/m2
23:57 52.9 °F 45.2 °F 30.18 in Calm     75% 0.00 in 0.00 W/m2
Foresthill Weather
 WU-history PHP script courtesy of   Juneau County Weather.
powered by Cumulus v1.9.3 (1059)
Ambient Weather VWS v14.00
Top Contact Website Map Copyright © 2007 - 2018 Foresthillweather.com Never base important decisions on this or any weather information obtained from the Internet